Location: Unspecified
(48.9757°N, 0.0000°E)
Time: 10:38:09
(UTC+00:00)

OTV 5 (USA 277) - Visible Passes

Search period start: 21 October 2019 00:00
Search period end: 31 October 2019 00:00
Orbit: 310 x 324 km, 54.5° (Epoch: 17 October)

Date Brightness Start Highest point End Pass type
(mag) Time Alt. Az. Time Alt. Az. Time Alt. Az.
28 Oct ? 18:38:18 10° SSW 18:38:41 12° S 18:38:41 12° S visible
29 Oct ? 18:52:16 10° SW 18:53:10 18° SW 18:53:10 18° SW visible
30 Oct ? 17:33:46 10° S 17:35:27 15° SE 17:36:39 12° ESE visible
30 Oct ? 19:06:43 10° WSW 19:07:33 18° WSW 19:07:33 18° WSW visible
